Regional Weather Roundup
Issued by NWS Cleveland, OH

Home | Current Version | Previous Version | Text Only | Print | Product List | Glossary Off
Versions: 1 2 3 4 5 6 7 8 9 10 11 12 13 14 15 16 17 18 19 20 21 22 23 24 25 26 27 28 29 30 31 32 33 34 35 36 37 38 39 40 41 42 43 44 45 46 47 48 49 50

000
ASUS41 KCLE 181210
RWRCLE
OHIO REGIONAL WEATHER ROUNDUP
NATIONAL WEATHER SERVICE CLEVELAND, OH
700 AM EST SAT NOV 18 2017

NOTE: "FAIR" INDICATES FEW OR NO CLOUDS BELOW 12,000 FEET WITH NO
SIGNIFICANT WEATHER AND/OR OBSTRUCTIONS TO VISIBILITY.

OHZ001>008-015>018-024>027-034-035-043-044-181300-
   NORTHWEST OHIO

CITY           SKY/WX    TMP DP  RH WIND       PRES   REMARKS
DEFIANCE       LGT RAIN  46  44  93 S3        29.55S FOG
FINDLAY        LGT RAIN  49  45  86 S9        29.55F FOG
TOLEDO EXPRESS CLOUDY    46  46 100 CALM      29.55F FOG
TOLEDO EXEC    CLOUDY    45  44  97 S3        29.57F FOG
LIMA           HVY RAIN  48  48 100 S10       29.56S FOG
$$

OHZ009>014-019>023-028>033-038-089-181300-
   NORTHEAST OHIO

CITY           SKY/WX    TMP DP  RH WIND       PRES   REMARKS
CLE-HOPKINS    CLOUDY    45  42  89 S13       29.62F
CLE-LAKEFRONT  CLOUDY    47  41  80 S17G23    29.59F
CUY CO. ARPT   LGT RAIN  46  43  87 S16G22    29.60
LORAIN-ELYRIA  LGT RAIN  44  38  79 S10       29.60S
ASHTABULA      CLOUDY    40  39  97 S12G20    29.64F
AKRON-CANTON   LGT RAIN  44  40  85 S13       29.63F
WOOSTER        LGT RAIN  42  40  92 S14G20    29.62F
MANSFIELD      LGT RAIN  45  44  97 S13       29.59F
YOUNGSTOWN     LGT RAIN  40  39  97 S6        29.67R FOG
$$

OHZ042-051>053-060>062-070>072-077>081-181300-
  SOUTHWEST OHIO

CITY           SKY/WX    TMP DP  RH WIND       PRES   REMARKS
CINC-COVINGTON CLOUDY    59  48  67 S20G33    29.58F
CINC-LUNKEN    CLOUDY    59  48  67 S18       29.60F
HAMILTON       CLOUDY    59  47  64 SW10      29.59F
DAYTON         CLOUDY    54  46  74 S16       29.55F
WRIGHT-PAT AFB CLOUDY    55  45  68 S15       29.56F
DAYTON GENERAL CLOUDY    54  45  71 S16       29.57F
WILMINGTON     CLOUDY    53  46  77 S18G25    29.59F
$$

OHZ036-037-039>041-045>050-054>059-063>069-073>076-082>088-181300-
  CENTRAL AND SOUTHEAST OHIO

CITY           SKY/WX    TMP DP  RH WIND       PRES   REMARKS
COLUMBUS       CLOUDY    49  45  86 S9        29.60F
OSU AIRPORT    CLOUDY    48  46  93 CALM      29.59F
BOLTON FIELD   CLOUDY    51  46  84 S10       29.60F
RICKENBACK AFB CLOUDY    49  46  89 S10       29.60F
NEWARK         CLOUDY    46  42  86 S6        29.61F
MARION         LGT RAIN  46  43  89 S9        29.58F FOG
LANCASTER      CLOUDY    50  44  80 S14       29.62F
ZANESVILLE     CLOUDY    46  40  79 S7        29.64F
NEW PHILLY     NOT AVBL
$$




USA.gov is the U.S. government's official web portal to all federal, state and local government web resources and services.